sat.trackr.live / text

‹ back to catalog

STARLINK-36684

NORAD 68718 · 2026-081V

PAYLOAD ACTIVE UNKNOWN

§ Identity

Operator
Country
US
Launch date
2026-04-14
Launch site
AFETR
Launch vehicle
Mass (kg)
RCS (m²)

Purposes: comms

External: N2YO · Heavens-Above · Gunter

§ Orbital elements

Epoch: 2026-09-18T05:53:07.165248Z

Period
93.85 min
Inclination
53.1565°
Eccentricity
0.0001090
Mean motion
15.34406840 rev/d
Perigee alt
461.9 km
Apogee alt
463.4 km
Semi-major
6,840.8 km
B*
8.7005e-4
RAAN
216.1584°
Arg perigee
149.0445°
Mean anomaly
211.0622°
Rev number
2,427

§ Raw data

STARLINK-366841 68718U 26081V   26261.24522182  .00029140  00000+0  87005-3 0  99982 68718  53.1565 216.1584 0001090 149.0445 211.0622 15.34406840 24275

JSON: /api/v1/satellites/68718 · /tle

For live sub-satellite position, see the globe view (requires WebGL).

§ Visibility from observer

Set your observer location to see the next 7 days of passes ≥ 10°. The values pass through the URL so the page stays shareable.

No JS? Fill the form by hand. The geolocation button needs JavaScript.